Location: ??????
(38.3184°N, 23.6932°E)
Time: 01:14:26
(UTC+00:00)

Spot 2 - Pass Details

Date: 16 October 2021
Orbit: 570 x 772 km, 98.7° (Epoch: 04 December)

Event Time Altitude Azimuth Distance (km) Brightness Sun altitude
Rises 16:31:26 0° 146° (SE) 2,759 7.1 -9.7°
Reaches altitude 10° 16:33:39 10° 137° (SE) 1,870 6.2 -10.1°
Maximum altitude 16:37:21 36° 71° (ENE) 921 4.5 -10.9°
Drops below altitude 10° 16:41:10 10° 4° (N) 1,928 6.5 -11.6°
Sets 16:43:29 0° 356° (N) 2,859 7.5 -12.1°
